Skip Page Navigation
NASA JPL Caltech
NASA Logo - Jet Propulsion Laboratory + View the NASA Portal
+ Center for Near-Earth Object Studies
JPL Home Earth Solar System Stars & Galaxies Technology
JPL Solar System Dynamics
BODIES ORBITS EPHEMERIDES TOOLS PHYSICAL DATA DISCOVERY FAQ SITE MAP
JPL Small-Body Database Browser
Search: [ help ]  
193137 (2000 HC62)
Classification: Main-belt Asteroid          SPK-ID: 2193137
Ephemeris | Orbit Diagram | Orbital Elements | Mission Design | Physical Parameters | Discovery Circumstances | Close-Approach Data ]

[ show orbit diagram ]
Orbital Elements at Epoch 2459000.5 (2020-May-31.0) TDB
Reference: JPL 11 (heliocentric ecliptic J2000)
 Element Value Uncertainty (1-sigma)   Units 
e .2144049200840154 5.5524e-08  
a 2.375911707665317 1.3093e-08 au
q 1.866504547856658 1.2944e-07 au
i 1.973921080598571 5.463e-06 deg
node 224.8187508449697 0.00020392 deg
peri 60.54937167822712 0.00020445 deg
M 128.8927389842672 1.5595e-05 deg
tp 2458521.572444692843
(2019-Feb-07.07244469)
5.647e-05 TDB
period 1337.654248557955
3.66
1.1057e-05
3.027e-08
d
yr
n .2691278410606437 2.2246e-09 deg/d
Q 2.885318867473976 1.59e-08 au
  Orbit Determination Parameters
   # obs. used (total)      186  
   data-arc span      7123 days (19.50 yr)  
   first obs. used      2000-04-25  
   last obs. used      2019-10-26  
   planetary ephem.      DE431  
   SB-pert. ephem.      SB431-N16  
   condition code      0  
   norm. resid. RMS      .6306  
   source      ORB  
   producer      Otto Matic  
   solution date      2019-Nov-07 21:44:25  

Additional Information
 Earth MOID = .851066 au 
 Jupiter MOID = 2.27908 au 
 T_jup = 3.509 
[ show covariance matrix ]

Ephemeris | Orbit Diagram | Orbital Elements | Mission Design | Physical Parameters | Discovery Circumstances | Close-Approach Data ]

Physical Parameter Table
Parameter Symbol Value Units Sigma Reference Notes
absolute magnitude H 17.4   n/a MPO436953  

193137 (2000 HC62)          Discovered 2000-Apr-25 by Spacewatch at Kitt Peak
Reference: 20081113/Numbers.arcLast Updated: 2008-11-17

[ show close-approach data ]
Alternate Designations
 2000 HC62 = 2000 JK67 
Ephemeris | Orbit Diagram | Orbital Elements | Mission Design | Physical Parameters | Discovery Circumstances | Close-Approach Data ]
ABOUT SSD CREDITS/AWARDS PRIVACY/COPYRIGHT GLOSSARY LINKS
FirstGov 2020-Oct-25 14:55 UT
(server date/time)  
NASA Home Page
Site Manager:   Ryan S. Park
Webmaster  Alan B. Chamberlin